Flag for Greenland Weather past 2 weeks in Qaanaaq, Greenland

Now
3 °F

Passing clouds.


Feels Like: -14 °F
Forecast: -2 / 3 °F
Wind: 13 mph from East

Location: Thule A. B.

Current Time: Oct 22, 2014 at 12:17:13 PM

Latest Report: Oct 22, 2014 at 11:58 AM


Visibility: N/A

Pressure: 29.54 "Hg

Humidity: 78%

Dew point: -2 °F

Location of QaanaaqLocation

Historic Weather in Qaanaaq — Graph

°F

Qaanaaq temperature yesterday

Maximum temperature yesterday: 16 °F (at 3:58 PM)
Minimum temperature yesterday: 7 °F (at 1:58 AM)
Average temperature yesterday: 13 °F

Past Weeks' High & Low Weather Summary

 TemperatureHumidityPressure
High43 °F (Oct 11, 11:58 AM)93% (Oct 11, 2:58 PM)30.30 "Hg (Oct 11, 2:58 PM)
Low1 °F (Oct 19, 6:58 PM)40% (Oct 7, 4:58 PM)29.43 "Hg (Oct 22, 2:58 AM)
Average19 °F77%29.90 "Hg
* Reported Oct 7 10:58 AM — Oct 22 10:58 AM, Qaanaaq, Weather by CustomWeather, © 2014

Note: Actual official high and low records may vary slightly from our data, if they occured in-between our weather recording intervals... More about our weather records

Advertising

Qaanaaq weather history for previous 24 hours

 ConditionsComfort  
Time TempWeatherWind HumidityBarometerVisibility
10:58 AM
Oct 22
5 °FPassing clouds.9 mph78%29.54 "HgN/A
9:58 AM5 °FClear.9 mph78%29.52 "HgN/A
8:59 AM10 °FOvercast.12 mph72%29.54 "HgN/A
8:58 AM9 °FMostly cloudy.12 mph78%29.51 "HgN/A
7:58 AM9 °FPassing clouds.8 mph78%29.49 "HgN/A
6:58 AM9 °FPassing clouds.10 mph85%29.48 "HgN/A
5:58 AM12 °FPassing clouds.10 mph73%29.46 "HgN/A
4:59 AM12 °FPassing clouds.10 mph79%29.49 "HgN/A
4:58 AM12 °FPassing clouds.12 mph78%29.45 "HgN/A
4:02 AM16 °FOvercast.13 mph79%29.48 "HgN/A
3:58 AM16 °FLight snow. Overcast.13 mph79%29.44 "HgN/A
3:04 AM16 °FLight snow. Ice fog.2 mph93%29.47 "Hg3 mi
2:58 AM16 °FLight snow. Ice fog.3 mph93%29.43 "Hg1 mi
1:58 AM14 °FLight snow. Low clouds.6 mph79%29.44 "HgN/A
12:58 AM12 °FPassing clouds.7 mph73%29.44 "HgN/A
11:58 PM
Oct 21
12 °FOvercast.7 mph73%29.46 "HgN/A
10:58 PM12 °FPassing clouds.6 mph79%29.49 "HgN/A
9:58 PM12 °FOvercast.6 mph79%29.51 "HgN/A
8:58 PM14 °FOvercast.3 mph79%29.52 "HgN/A
7:58 PM16 °FOvercast.1 mph73%29.54 "HgN/A
6:58 PM16 °FOvercast.6 mph73%29.57 "HgN/A
5:58 PM16 °FOvercast.7 mph73%29.58 "HgN/A
4:58 PM14 °FOvercast.7 mph79%29.60 "HgN/A
3:58 PM16 °FOvercast.9 mph73%29.63 "HgN/A
2:58 PM14 °FOvercast.6 mph73%29.65 "HgN/A
1:58 PM14 °FPassing clouds.10 mph73%29.67 "HgN/A
12:58 PM12 °FOvercast.9 mph79%29.69 "HgN/A
Weather by CustomWeather, © 2014

See weather overviewHow to use our weather pages